Flag for Malaysia Weather past 2 weeks in Ipoh, Malaysia

Now
77 °F

Broken clouds.


Feels Like: 78 °F
Forecast: 78 / 91 °F
Wind: 1 mph from East

Location: Sitiawan Airport

Current Time: Apr 2, 2015 at 8:53:25 AM

Latest Report: Apr 2, 2015 at 8:00 AM


Visibility: 6 mi

Pressure: 29.83 "Hg

Humidity: 94%

Dew point: 75 °F

Location of IpohLocation

Historic Weather in Ipoh — Graph

°F

Ipoh temperature yesterday

Maximum temperature yesterday: 91 °F (at 2:00 PM)
Minimum temperature yesterday: 77 °F (at 12:00 AM)
Average temperature yesterday: 81 °F

Past Weeks' High & Low Weather Summary

 TemperatureHumidityPressure
High93 °F (Mar 18, 2:00 PM)100% (Mar 23, 8:00 AM)29.92 "Hg (Mar 23, 8:00 AM)
Low75 °F (Mar 22, 6:00 AM)49% (Mar 18, 3:00 PM)29.71 "Hg (Mar 18, 5:00 PM)
Average83 °F82%29.83 "Hg
* Reported Mar 18 8:00 AM — Apr 2 8:00 AM, Ipoh, Weather by CustomWeather, © 2015

Note: Actual official high and low records may vary slightly from our data, if they occured in-between our weather recording intervals... More about our weather records

Advertising

Ipoh weather history for previous 24 hours

 ConditionsComfort  
Time TempWeatherWind HumidityBarometerVisibility
8:00 AM
Thu, Apr 2
77 °FBroken clouds.1 mph94%29.83 "Hg6 mi
7:00 AM77 °FPartly cloudy.1 mph100%29.80 "HgN/A
6:00 AM77 °FPassing clouds.No wind94%29.80 "Hg4 mi
5:00 AM75 °FPassing clouds.1 mph100%29.77 "Hg4 mi
4:00 AM75 °FLight rain. Mostly cloudy.1 mph100%29.77 "Hg4 mi
3:00 AM77 °FRain. Mostly cloudy.6 mph94%29.83 "Hg4 mi
2:00 AM79 °FPartly cloudy.No wind94%29.83 "HgN/A
1:00 AM77 °FPartly cloudy.1 mph94%29.86 "HgN/A
12:00 AM77 °FPartly cloudy.2 mph94%29.86 "HgN/A
11:00 PM
Wed, Apr 1
77 °FPassing clouds.1 mph94%29.86 "HgN/A
10:00 PM77 °FPassing clouds.1 mph94%29.83 "HgN/A
9:00 PM79 °FPartly cloudy.1 mph89%29.80 "HgN/A
8:00 PM79 °FPartly cloudy.1 mph94%29.80 "HgN/A
7:00 PM79 °FBroken clouds.1 mph94%29.77 "HgN/A
6:00 PM79 °FBroken clouds.1 mph89%29.71 "HgN/A
5:00 PM79 °FLight rain. Broken clouds.3 mph89%29.74 "HgN/A
4:00 PM88 °FBroken clouds.6 mph66%29.74 "HgN/A
3:00 PM91 °FPartly sunny.5 mph63%29.77 "HgN/A
2:00 PM91 °FBroken clouds.8 mph59%29.80 "HgN/A
1:00 PM90 °FBroken clouds.2 mph67%29.83 "HgN/A
12:00 PM90 °FBroken clouds.2 mph67%29.86 "HgN/A
11:00 AM86 °FPartly sunny.1 mph70%29.89 "HgN/A
10:00 AM84 °FBroken clouds.3 mph79%29.89 "HgN/A
9:00 AM79 °FBroken clouds.3 mph89%29.86 "HgN/A
8:00 AM77 °FBroken clouds.1 mph94%29.83 "HgN/A
Weather by CustomWeather, © 2015

See weather overviewHow to use our weather pages